2021/01/27 23:30:31+0000,-39.32,-45.87,-33.10,-50.15,-55.17,-56.39
2021/01/27 23:31:31+0000,-39.28,-45.60,-32.98,-51.03,-55.42,-56.25
2021/01/27 23:32:23+0000,-39.78,-46.34,-32.69,-51.37,-54.85,-55.51
2021/01/27 23:33:15+0000,-39.72,-47.98,-33.38,-49.78,-54.90,-56.45
2021/01/27 23:34:07+0000,-38.95,-49.04,-33.09,-49.04,-54.95,-56.07
2021/01/27 23:34:59+0000,-39.35,-46.14,-32.94,-50.55,-54.98,-55.72
2021/01/27 23:35:51+0000,-39.61,-48.32,-33.41,-50.99,-55.21,-56.24
2021/01/27 23:36:43+0000,-40.41,-47.12,-33.38,-46.72,-55.70,-56.10
2021/01/27 23:37:35+0000,-40.11,-47.03,-33.16,-51.42,-56.07,-56.51
2021/01/27 23:38:27+0000,-39.60,-46.00,-32.99,-50.47,-55.83,-55.88
2021/01/27 23:39:19+0000,-39.55,-47.29,-33.36,-53.45,-55.44,-56.19
2021/01/27 23:40:12+0000,-39.74,-45.84,-33.47,-49.10,-55.82,-3.91
2021/01/27 23:41:12+0000,-40.52,-45.23,-32.78,-46.68,-55.35,-56.03
2021/01/27 23:42:04+0000,-40.06,-48.17,-33.03,-53.47,-55.17,-56.58
2021/01/27 23:42:56+0000,-39.79,-48.97,-33.42,-49.94,-56.07,-56.61
2021/01/27 23:43:48+0000,-39.83,-45.37,-32.98,-48.92,-55.87,-55.87
2021/01/27 23:44:40+0000,-39.49,-46.19,-32.52,-49.38,-55.99,-56.16
2021/01/27 23:45:32+0000,-39.39,-47.05,-33.34,-49.50,-55.79,-56.05
2021/01/27 23:46:24+0000,-39.51,-48.32,-33.18,-49.87,-55.67,-55.99
2021/01/27 23:47:16+0000,-40.00,-47.82,-33.18,-50.47,-55.42,-56.20
2021/01/27 23:48:08+0000,-40.04,-45.89,-32.60,-49.60,-54.96,-56.18
2021/01/27 23:49:00+0000,-40.14,-46.75,-32.99,-49.81,-56.07,-56.86
2021/01/27 23:49:52+0000,-39.85,-48.40,-32.66,-50.04,-56.09,-56.80
2021/01/27 23:50:45+0000,-40.11,-45.47,-33.30,-49.95,-55.75,-56.26
2021/01/27 23:51:45+0000,-39.45,-47.98,-32.77,-48.14,-56.31,-55.85
2021/01/27 23:52:37+0000,-39.51,-46.51,-33.52,-50.36,-55.71,-56.19
2021/01/27 23:53:29+0000,-38.81,-47.22,-33.41,-49.02,-56.06,-56.17
2021/01/27 23:54:21+0000,-39.50,-46.38,-32.85,-52.43,-55.54,-56.25
2021/01/27 23:55:13+0000,-38.73,-44.85,-33.69,-46.81,-55.47,-56.26
2021/01/27 23:56:05+0000,-39.26,-47.89,-33.31,-52.56,-56.25,-56.35
2021/01/27 23:56:57+0000,-39.05,-46.43,-33.15,-49.80,-56.13,-56.60
2021/01/27 23:57:49+0000,-39.07,-44.84,-33.00,-52.79,-55.09,-56.34
2021/01/27 23:58:41+0000,-39.87,-45.78,-32.75,-48.38,-56.30,-56.12
2021/01/27 23:59:33+0000,-39.24,-46.54,-32.90,-49.94,-55.89,-56.66
2021/01/28 00:00:25+0000,-39.34,-47.27,-33.11,-50.55,-54.79,-56.42
2021/01/28 00:01:30+0000,-39.12,-46.68,-33.18,-50.85,-56.57,-56.69
2021/01/28 00:02:22+0000,-39.55,-47.66,-33.08,-51.31,-55.72,-56.15
2021/01/28 00:03:14+0000,-39.10,-44.25,-32.52,-47.22,-56.09,-56.26
2021/01/28 00:04:06+0000,-39.45,-47.50,-33.29,-46.05,-56.19,-56.86
2021/01/28 00:04:58+0000,-39.61,-45.74,-33.10,-50.62,-56.09,-56.07
2021/01/28 00:05:50+0000,-39.45,-48.75,-32.76,-50.76,-55.44,-56.38
2021/01/28 00:06:42+0000,-39.14,-43.62,-33.08,-48.93,-55.85,-56.87
2021/01/28 00:07:34+0000,-39.22,-47.59,-33.05,-53.56,-55.83,-56.16
2021/01/28 00:08:26+0000,-39.41,-47.47,-32.88,-50.37,-56.88,-56.00
2021/01/28 00:09:18+0000,-39.37,-45.40,-33.03,-53.02,-55.02,-56.13
2021/01/28 00:10:10+0000,-39.07,-44.68,-32.89,-49.48,-56.26,-56.47
2021/01/28 00:11:11+0000,-38.67,-46.04,-33.00,-49.44,-56.38,-56.48
2021/01/28 00:12:03+0000,-40.85,-47.59,-32.81,-52.59,-56.17,-56.18
2021/01/28 00:12:55+0000,-40.20,-47.25,-33.18,-50.93,-55.72,-55.89
2021/01/28 00:13:47+0000,-39.71,-44.18,-32.92,-50.15,-55.58,-56.03
2021/01/28 00:14:39+0000,-40.51,-43.90,-32.98,-49.68,-56.44,-56.07
2021/01/28 00:15:31+0000,-39.99,-47.62,-33.30,-50.10,-56.32,-56.39
2021/01/28 00:16:23+0000,-40.33,-49.01,-32.29,-51.39,-56.23,-56.24
2021/01/28 00:17:15+0000,-39.34,-45.10,-32.49,-49.47,-55.60,-56.33
2021/01/28 00:18:07+0000,-39.64,-47.88,-32.79,-50.38,-55.52,-56.27
2021/01/28 00:18:59+0000,-39.54,-46.89,-33.27,-50.03,-55.88,-55.74
2021/01/28 00:19:51+0000,-38.73,-47.53,-32.49,-50.00,-55.46,-55.81
2021/01/28 00:20:43+0000,-39.67,-44.85,-32.85,-48.13,-55.65,-55.68
2021/01/28 00:21:44+0000,-39.56,-46.30,-32.26,-48.07,-55.70,-55.99
2021/01/28 00:22:36+0000,-40.21,-47.72,-33.17,-47.21,-55.96,-55.89
2021/01/28 00:23:28+0000,-39.57,-47.31,-32.80,-49.69,-55.64,-55.06
2021/01/28 00:24:20+0000,-39.69,-45.06,-32.55,-51.16,-55.37,-56.02
2021/01/28 00:25:12+0000,-40.85,-46.87,-32.85,-48.26,-55.45,-55.83
2021/01/28 00:26:04+0000,-40.86,-46.05,-32.89,-51.85,-55.33,-55.58
2021/01/28 00:26:56+0000,-40.07,-46.72,-32.72,-49.99,-55.61,-56.23
2021/01/28 00:27:48+0000,-40.33,-46.30,-33.13,-48.66,-56.03,-55.78
2021/01/28 00:28:40+0000,-40.20,-45.61,-33.16,-48.01,-55.72,-55.87
2021/01/28 00:29:32+0000,-39.97,-46.73,-33.16,-51.10,-55.33,-55.83
2021/01/28 00:30:24+0000,-40.23,-46.22,-32.46,-50.41,-55.84,-55.99
2021/01/28 00:31:24+0000,-40.22,-48.02,-32.72,-51.94,-55.87,-55.71
2021/01/28 00:32:16+0000,-39.93,-44.11,-32.39,-48.94,-55.55,-55.32
2021/01/28 00:33:08+0000,-40.47,-42.81,-32.83,-48.02,-55.68,-55.71
2021/01/28 00:34:01+0000,-40.71,-47.64,-32.80,-49.01,-55.43,-56.16
2021/01/28 00:34:53+0000,-40.58,-47.45,-33.05,-48.67,-55.36,-55.43
2021/01/28 00:35:45+0000,-39.49,-43.35,-32.92,-47.16,-55.37,-55.71
2021/01/28 00:36:37+0000,-40.21,-48.10,-33.04,-46.01,-55.04,-55.78
2021/01/28 00:37:29+0000,-40.14,-46.24,-32.68,-26.90,-55.11,-55.70
2021/01/28 00:38:21+0000,-40.16,-48.00,-32.95,-49.49,-55.69,-56.05
2021/01/28 00:39:13+0000,-38.79,-43.22,-33.45,-47.35,-55.14,-56.06
2021/01/28 00:40:06+0000,-38.95,-45.99,-33.26,-48.51,-55.53,-55.81
2021/01/28 00:41:05+0000,-39.30,-47.25,-33.29,-49.06,-55.33,-55.64
2021/01/28 00:41:58+0000,-38.80,-44.97,-33.29,-49.68,-56.37,-55.72
2021/01/28 00:42:50+0000,-38.49,-44.69,-32.67,-50.81,-55.53,-56.11
2021/01/28 00:43:42+0000,-39.16,-43.10,-33.11,-47.29,-45.77,-55.57
2021/01/28 00:44:34+0000,-38.96,-44.93,-32.75,-51.09,-56.04,-55.97
2021/01/28 00:45:26+0000,-39.24,-45.15,-32.97,-67.22,-56.60,-55.90
2021/01/28 00:46:18+0000,-39.12,-45.68,-32.28,-48.06,-55.59,-55.35
2021/01/28 00:47:10+0000,-39.22,-45.49,-33.06,-66.67,-56.36,-56.00
2021/01/28 00:48:02+0000,-39.27,-45.12,-33.35,-49.80,-56.06,-55.90
2021/01/28 00:48:54+0000,-38.94,-45.51,-32.87,-68.58,-56.12,-55.96
2021/01/28 00:49:46+0000,-38.29,-44.41,-32.84,-47.28,-56.34,-55.87
2021/01/28 00:50:38+0000,-38.65,-46.40,-33.70,-66.24,-56.34,-55.67
2021/01/28 00:51:39+0000,-38.79,-44.10,-33.63,-67.26,-55.72,-55.63
2021/01/28 00:52:31+0000,-38.54,-44.28,-32.34,-49.23,-56.04,-56.06
2021/01/28 00:53:23+0000,-37.81,-45.82,-34.37,-65.81,-55.94,-55.52
2021/01/28 00:54:15+0000,-38.22,-45.84,-34.23,-48.74,-56.28,-55.92
2021/01/28 00:55:07+0000,-37.91,-45.49,-34.51,-50.01,-56.05,-55.66
2021/01/28 00:55:59+0000,-38.88,-45.83,-34.49,-49.66,-55.25,-55.51
2021/01/28 00:56:51+0000,-37.95,-46.23,-34.18,-51.31,-55.90,-55.77
2021/01/28 00:57:43+0000,-37.63,-43.60,-34.97,-50.44,-55.71,-55.86
2021/01/28 00:58:35+0000,-38.59,-46.15,-33.99,-51.81,-55.67,-55.70
2021/01/28 00:59:27+0000,-38.53,-44.47,-34.05,-49.76,-55.57,-56.00
2021/01/28 01:00:20+0000,-39.13,-43.60,-33.58,-52.18,-56.10,-55.60
2021/01/28 01:01:18+0000,-39.08,-45.64,-33.42,-52.30,-56.34,-56.02
2021/01/28 01:02:11+0000,-39.26,-46.03,-33.92,-49.74,-55.82,-55.63
2021/01/28 01:03:03+0000,-38.64,-46.69,-34.56,-50.95,-56.02,-55.37
2021/01/28 01:03:55+0000,-38.03,-46.67,-34.67,-50.77,-56.38,-55.96
2021/01/28 01:04:47+0000,-37.29,-45.10,-33.86,-50.08,-55.56,-55.13
2021/01/28 01:05:39+0000,-37.58,-45.04,-34.07,-49.06,-54.80,-55.08
2021/01/28 01:06:31+0000,-37.05,-45.91,-34.76,-50.90,-55.60,-54.75
2021/01/28 01:07:23+0000,-37.47,-44.95,-33.72,-50.88,-55.55,-55.44
2021/01/28 01:08:15+0000,-38.06,-45.47,-34.08,-41.23,-55.86,-55.48
2021/01/28 01:09:07+0000,-38.02,-45.87,-33.85,-48.04,-56.18,-54.65
2021/01/28 01:09:59+0000,-38.01,-44.47,-34.43,-50.91,-55.79,-54.89
2021/01/28 01:10:51+0000,-39.06,-46.83,-34.61,-50.74,-54.41,-55.10
2021/01/28 01:11:52+0000,-36.73,-46.07,-33.92,-50.76,-55.70,-54.55
2021/01/28 01:12:44+0000,-37.55,-44.88,-34.63,-48.19,-55.51,-55.21
2021/01/28 01:13:36+0000,-38.60,-46.00,-34.11,-47.70,-55.81,-55.45
2021/01/28 01:14:28+0000,-37.93,-44.76,-34.25,-50.85,-55.25,-55.00
2021/01/28 01:15:20+0000,-37.82,-45.69,-34.18,-50.60,-55.92,-54.64
2021/01/28 01:16:12+0000,-33.32,-45.91,-34.08,-49.14,-56.04,-55.15
2021/01/28 01:17:04+0000,-38.58,-46.29,-34.10,-51.12,-55.57,-55.65
2021/01/28 01:17:56+0000,-35.79,-45.76,-34.20,-50.79,-55.78,-55.49
2021/01/28 01:18:48+0000,-38.62,-44.38,-33.30,-50.66,-55.76,-55.83
2021/01/28 01:19:40+0000,-38.08,-47.41,-34.73,-51.61,-56.24,-55.44
2021/01/28 01:20:32+0000,-38.38,-47.83,-34.50,-51.29,-55.42,-55.63
2021/01/28 01:21:32+0000,-38.48,-46.93,-34.94,-51.79,-55.49,-55.68
2021/01/28 01:22:24+0000,-38.22,-47.37,-34.63,-50.18,-55.72,-55.17
2021/01/28 01:23:16+0000,-36.59,-46.74,-34.31,-51.01,-55.44,-55.10
2021/01/28 01:24:08+0000,-37.97,-47.30,-33.97,-51.32,-55.70,-55.46
2021/01/28 01:25:00+0000,-36.65,-47.00,-34.38,-51.52,-56.22,-56.09
2021/01/28 01:25:52+0000,-37.46,-47.34,-34.68,-51.32,-56.25,-55.49
2021/01/28 01:26:45+0000,-36.79,-46.74,-34.31,-51.52,-56.56,-55.73
2021/01/28 01:27:37+0000,-37.48,-48.41,-34.18,-50.87,-56.54,-55.41
2021/01/28 01:28:29+0000,-37.86,-47.02,-34.72,-51.51,-56.32,-55.52
2021/01/28 01:29:21+0000,-37.43,-48.25,-34.15,-50.83,-55.70,-54.99
2021/01/28 01:30:13+0000,-35.09,-47.01,-34.35,-50.92,-56.17,-56.05
2021/01/28 01:31:13+0000,-33.58,-46.00,-33.98,-51.35,-55.77,-55.69
2021/01/28 01:32:05+0000,-34.07,-48.22,-34.81,-51.39,-56.22,-55.94
2021/01/28 01:32:57+0000,-37.54,-46.25,-34.35,-51.76,-56.03,-55.18
2021/01/28 01:33:49+0000,-35.95,-46.56,-34.47,-51.31,-55.68,-56.14
2021/01/28 01:34:41+0000,-37.48,-46.64,-34.21,-50.97,-55.86,-55.50
2021/01/28 01:35:33+0000,-35.98,-47.76,-34.13,-50.47,-55.57,-56.02
2021/01/28 01:36:25+0000,-36.12,-48.01,-34.49,-51.31,-55.66,-55.40
2021/01/28 01:37:17+0000,-36.84,-47.09,-34.27,-51.23,-55.88,-55.76
2021/01/28 01:38:09+0000,-36.86,-48.54,-34.31,-51.48,-55.74,-55.92
2021/01/28 01:39:02+0000,-36.54,-45.75,-34.74,-51.56,-56.07,-55.58
2021/01/28 01:39:54+0000,-36.00,-46.77,-34.26,-51.26,-56.18,-55.29
2021/01/28 01:40:46+0000,-36.29,-47.20,-34.19,-51.08,-55.25,-52.82
2021/01/28 01:41:47+0000,-36.54,-46.39,-34.05,-50.87,-55.38,-53.84
2021/01/28 01:42:39+0000,-37.54,-47.85,-34.47,-51.56,-55.33,-52.26
2021/01/28 01:43:31+0000,-36.14,-44.61,-34.43,-51.35,-56.18,-52.67
2021/01/28 01:44:23+0000,-37.12,-46.04,-34.31,-51.32,-55.95,-52.49
2021/01/28 01:45:15+0000,-36.11,-45.16,-34.01,-51.18,-55.59,-53.92
2021/01/28 01:46:07+0000,-37.39,-50.58,-34.15,-51.38,-55.52,-54.53
2021/01/28 01:47:00+0000,-36.20,-47.69,-34.18,-51.21,-55.70,-54.29
2021/01/28 01:47:52+0000,-36.22,-49.42,-34.01,-51.16,-55.46,-54.18
2021/01/28 01:48:44+0000,-36.21,-45.96,-34.01,-51.44,-55.36,-54.64
2021/01/28 01:49:36+0000,-37.02,-48.99,-34.03,-51.12,-55.10,-54.53
2021/01/28 01:50:28+0000,-36.75,-44.38,-34.11,-50.68,-55.68,-54.93
2021/01/28 01:51:28+0000,-35.89,-45.15,-34.59,-50.99,-55.77,-55.12
2021/01/28 01:52:20+0000,-36.79,-46.43,-34.06,-51.44,-55.33,-55.27
2021/01/28 01:53:12+0000,-36.38,-47.17,-35.08,-50.78,-55.58,-54.73
2021/01/28 01:54:04+0000,-36.77,-45.10,-34.23,-51.35,-56.51,-55.74
2021/01/28 01:54:56+0000,-37.72,-45.30,-34.34,-51.00,-56.02,-54.92
2021/01/28 01:55:48+0000,-35.62,-44.02,-34.61,-50.59,-56.05,-55.33
2021/01/28 01:56:40+0000,-37.11,-44.41,-34.09,-50.33,-55.84,-56.11
2021/01/28 01:57:32+0000,-35.76,-45.43,-34.78,-50.95,-55.71,-55.08
2021/01/28 01:58:24+0000,-35.79,-45.40,-33.87,-51.16,-55.36,-55.00
2021/01/28 01:59:17+0000,-37.43,-45.28,-34.76,-50.44,-55.13,-55.06
2021/01/28 02:00:09+0000,-36.43,-44.36,-35.16,-50.81,-55.02,-54.99
2021/01/28 02:01:10+0000,-36.79,-45.51,-34.37,-49.64,-55.31,-54.26
2021/01/28 02:02:02+0000,-36.95,-45.56,-34.22,-51.61,-55.20,-54.34
2021/01/28 02:02:54+0000,-36.71,-45.81,-34.27,-50.92,-55.40,-55.55
2021/01/28 02:03:46+0000,-37.26,-42.19,-35.09,-50.64,-55.12,-54.81
2021/01/28 02:04:38+0000,-37.54,-47.82,-34.62,-50.58,-55.68,-54.72
2021/01/28 02:05:30+0000,-36.62,-49.23,-34.63,-51.01,-54.98,-54.86
2021/01/28 02:06:22+0000,-36.98,-45.95,-33.93,-50.96,-55.59,-54.52
2021/01/28 02:07:14+0000,-37.20,-47.12,-34.60,-51.19,-55.81,-55.52
2021/01/28 02:08:06+0000,-36.54,-50.01,-34.69,-50.70,-55.44,-54.86
2021/01/28 02:08:58+0000,-36.26,-45.74,-34.17,-51.67,-55.97,-54.76
2021/01/28 02:09:51+0000,-37.73,-49.97,-34.00,-51.59,-55.73,-54.51
2021/01/28 02:10:43+0000,-37.57,-45.18,-34.60,-50.31,-54.62,-55.84
2021/01/28 02:11:42+0000,-37.73,-47.21,-33.99,-50.12,-55.67,-55.54
2021/01/28 02:12:34+0000,-36.58,-45.64,-34.12,-51.17,-55.81,-55.78
2021/01/28 02:13:26+0000,-36.72,-48.93,-33.76,-51.26,-55.16,-55.91
2021/01/28 02:14:18+0000,-36.95,-47.24,-33.67,-51.35,-55.38,-56.03
2021/01/28 02:15:11+0000,-37.53,-46.12,-34.11,-50.85,-56.03,-55.82
2021/01/28 02:16:03+0000,-38.29,-45.26,-34.07,-51.13,-55.68,-55.96
2021/01/28 02:16:55+0000,-37.61,-45.78,-34.52,-51.28,-55.39,-54.86
2021/01/28 02:17:47+0000,-36.83,-45.96,-34.08,-44.91,-55.59,-54.80
2021/01/28 02:18:39+0000,-36.04,-45.45,-34.22,-44.22,-54.97,-55.71
2021/01/28 02:19:31+0000,-36.76,-45.86,-34.30,-44.20,-55.11,-54.89
2021/01/28 02:20:23+0000,-34.49,-45.83,-33.53,-44.84,-55.27,-55.16
2021/01/28 02:21:23+0000,-35.84,-45.86,-33.63,-44.35,-55.47,-55.05
2021/01/28 02:22:15+0000,-36.61,-46.74,-33.64,-42.78,-55.14,-55.36
2021/01/28 02:23:07+0000,-36.24,-49.76,-33.59,-44.64,-55.35,-55.17
2021/01/28 02:23:59+0000,-36.87,-46.01,-33.61,-42.69,-55.58,-55.12
2021/01/28 02:24:51+0000,-34.83,-50.44,-33.93,-45.02,-55.60,-55.30
2021/01/28 02:25:43+0000,-34.29,-46.77,-33.95,-43.36,-55.04,-54.91
2021/01/28 02:26:35+0000,-34.31,-49.45,-33.83,9.60,-55.80,-55.17
2021/01/28 02:27:27+0000,-34.24,-49.96,-33.89,-43.20,-55.31,-55.00
2021/01/28 02:28:19+0000,-35.43,-46.95,-33.60,-43.20,-55.22,-54.28
2021/01/28 02:29:11+0000,-36.11,-48.22,-33.97,-51.32,-55.64,-55.38
2021/01/28 02:30:04+0000,-34.85,-47.84,-33.98,-50.38,-55.65,-55.57
2021/01/28 02:31:04+0000,-36.73,-48.12,-33.69,-51.17,-55.38,-55.21
2021/01/28 02:31:56+0000,-35.76,-48.23,-33.44,-51.23,-55.91,-55.86
2021/01/28 02:32:48+0000,-36.42,-48.08,-33.61,-51.40,-55.26,-55.84
2021/01/28 02:33:40+0000,-37.24,-47.16,-33.55,-51.73,-55.69,-55.74
2021/01/28 02:34:32+0000,-35.31,-48.78,-33.01,-51.84,-55.68,-56.18
2021/01/28 02:35:24+0000,-36.77,-49.15,-33.91,-52.33,-55.55,-55.68
2021/01/28 02:36:16+0000,-35.27,-46.39,-33.79,-51.29,-55.83,-56.48
2021/01/28 02:37:08+0000,-35.76,-47.29,-33.41,-51.73,-56.03,-55.31
2021/01/28 02:38:00+0000,-36.02,-48.64,-34.22,-52.36,-55.34,-56.03
2021/01/28 02:38:52+0000,-36.34,-50.18,-33.11,-51.66,-55.63,-55.77
2021/01/28 02:39:45+0000,-36.14,-47.42,-34.33,-51.39,-55.72,-56.02
2021/01/28 02:40:37+0000,-35.47,-50.00,-33.70,-51.92,-55.62,-55.35
2021/01/28 02:41:37+0000,-35.88,-50.63,-34.10,-51.17,-56.02,-55.85
2021/01/28 02:42:29+0000,-36.58,-47.09,-33.60,-51.38,-55.56,-55.70
2021/01/28 02:43:21+0000,-35.25,-47.21,-33.84,-51.83,-56.00,-55.52
2021/01/28 02:44:13+0000,-36.19,-45.53,-33.63,-50.96,-55.50,-55.48
2021/01/28 02:45:05+0000,-36.15,-47.30,-33.36,-50.81,-55.43,-55.32
2021/01/28 02:45:57+0000,-35.67,-46.64,-33.39,-51.28,-55.59,-55.91
2021/01/28 02:46:49+0000,-35.29,-46.12,-33.83,-51.48,-55.45,-56.01
2021/01/28 02:47:41+0000,-35.60,-45.91,-33.32,-51.33,-55.81,-55.82
2021/01/28 02:48:33+0000,-36.37,-47.56,-33.78,-51.81,-55.53,-55.64
2021/01/28 02:49:25+0000,-35.36,-45.35,-33.72,-51.47,-55.64,-55.64
2021/01/28 02:50:17+0000,-35.77,-44.65,-33.21,-50.88,-55.42,-55.97
2021/01/28 02:51:17+0000,-35.84,-46.50,-33.10,-51.78,-55.14,-56.02
2021/01/28 02:52:09+0000,-35.30,-46.47,-33.61,-51.59,-55.90,-55.68
2021/01/28 02:53:02+0000,-34.88,-44.90,-33.33,-51.22,-55.25,-55.72
2021/01/28 02:53:54+0000,-35.04,-46.94,-34.01,-51.86,-55.42,-55.49
2021/01/28 02:54:46+0000,-34.56,-46.15,-33.28,-51.21,-55.00,-55.57
2021/01/28 02:55:38+0000,-34.98,-47.43,-33.17,-51.24,-54.99,-55.89
2021/01/28 02:56:30+0000,-35.99,-45.48,-33.56,-51.25,-55.36,-55.66
2021/01/28 02:57:22+0000,-35.20,-47.42,-33.28,-50.74,-56.16,-55.12
2021/01/28 02:58:14+0000,-36.10,-46.73,-33.92,-51.40,-55.02,-55.53
2021/01/28 02:59:06+0000,-35.55,-48.04,-33.60,-50.89,-55.88,-55.01
2021/01/28 02:59:58+0000,-34.84,-46.70,-33.25,-50.72,-55.04,-56.18
2021/01/28 03:00:50+0000,-35.68,-47.18,-33.35,-50.98,-55.71,-55.23
2021/01/28 03:01:50+0000,-36.59,-47.49,-32.78,-51.85,-55.63,-55.31
2021/01/28 03:02:42+0000,-36.18,-46.47,-33.26,-50.74,-55.66,-55.24
2021/01/28 03:03:34+0000,-35.36,-47.39,-33.43,-50.51,-55.24,-55.57
2021/01/28 03:04:26+0000,-35.49,-47.80,-33.20,-51.25,-55.77,-55.64
2021/01/28 03:05:18+0000,-36.59,-45.88,-33.19,-50.72,-55.47,-55.32
2021/01/28 03:06:10+0000,-36.10,-45.37,-33.03,-51.49,-56.12,-55.98
2021/01/28 03:07:02+0000,-35.83,-48.07,-33.65,-51.07,-55.81,-55.59
2021/01/28 03:07:54+0000,-36.01,-45.68,-33.13,-50.88,-56.16,-56.32
2021/01/28 03:08:46+0000,-36.44,-45.02,-33.71,-51.39,-55.72,-55.45
2021/01/28 03:09:38+0000,-36.49,-45.70,-33.60,-50.54,-55.62,-55.96
2021/01/28 03:10:30+0000,-36.11,-46.39,-33.71,-51.46,-56.37,-55.67
2021/01/28 03:11:30+0000,-35.54,-47.28,-33.37,-50.41,-55.44,-56.17
2021/01/28 03:12:22+0000,-36.38,-45.91,-33.63,-51.63,-55.82,-55.35
2021/01/28 03:13:14+0000,-36.35,-46.72,-33.20,-50.76,-55.54,-55.86
2021/01/28 03:14:07+0000,-36.24,-46.85,-33.42,-51.28,-55.58,-56.51
2021/01/28 03:14:59+0000,-36.42,-46.56,-33.44,-50.44,-55.98,-56.26
2021/01/28 03:15:51+0000,-36.67,-47.82,-33.16,-50.52,-55.87,-56.04
2021/01/28 03:16:43+0000,-36.42,-47.35,-33.17,-51.16,-55.59,-55.36
2021/01/28 03:17:35+0000,-36.42,-47.29,-32.96,-51.13,-55.93,-55.14
2021/01/28 03:18:27+0000,-35.79,-46.79,-33.14,-51.11,-55.34,-55.56
2021/01/28 03:19:19+0000,-35.77,-47.86,-33.90,-51.09,-56.00,-55.94
2021/01/28 03:20:11+0000,-36.60,-45.54,-33.26,-50.16,-55.49,-55.85
2021/01/28 03:21:09+0000,-36.40,-47.41,-33.03,-50.69,-55.90,-55.63
2021/01/28 03:22:01+0000,-37.03,-47.09,-34.14,-51.40,-55.73,-55.73
2021/01/28 03:22:53+0000,-35.97,-45.47,-33.20,-51.39,-55.48,-55.67
2021/01/28 03:23:45+0000,-36.22,-48.10,-33.04,-51.94,-55.29,-55.11
2021/01/28 03:24:37+0000,-36.89,-47.83,-33.37,-50.87,-55.94,-55.15
2021/01/28 03:25:29+0000,-37.79,-46.32,-32.90,-51.27,-55.04,-55.01
2021/01/28 03:26:21+0000,-34.71,-47.19,-33.27,-50.94,-55.31,-55.55
2021/01/28 03:27:13+0000,-35.99,-46.40,-33.31,-51.33,-55.80,-55.73
2021/01/28 03:28:05+0000,-36.80,-46.72,-33.01,-51.12,-55.40,-55.47
2021/01/28 03:28:57+0000,-35.38,-44.84,-33.85,-50.83,-55.86,-55.29
2021/01/28 03:29:50+0000,-36.04,-47.48,-33.54,-50.40,-55.47,-55.39
2021/01/28 03:30:42+0000,-36.16,-47.38,-33.47,-50.93,-55.63,-55.14
2021/01/28 03:31:47+0000,-37.08,-47.38,-33.37,-50.51,-55.31,-55.33
2021/01/28 03:32:39+0000,-36.25,-46.83,-33.68,-51.35,-55.71,-55.09
2021/01/28 03:33:31+0000,-36.44,-48.50,-33.85,-51.09,-56.15,-55.77
2021/01/28 03:34:23+0000,-37.57,-46.32,-33.48,-50.85,-55.43,-55.92
2021/01/28 03:35:16+0000,-36.66,-46.47,-33.23,-51.17,-56.34,-55.82
2021/01/28 03:36:08+0000,-36.83,-48.10,-33.30,-51.68,-55.20,-55.78
2021/01/28 03:37:00+0000,-34.91,-46.65,-33.37,-51.57,-55.76,-55.52
2021/01/28 03:37:52+0000,-35.26,-48.99,-33.57,-51.21,-55.31,-55.37
2021/01/28 03:38:44+0000,-35.80,-48.02,-33.16,-51.43,-55.66,-55.90
2021/01/28 03:39:36+0000,-36.13,-47.38,-33.72,-51.40,-55.45,-55.46
2021/01/28 03:40:28+0000,-36.03,-46.59,-33.42,-50.73,-55.41,-55.85
2021/01/28 03:41:34+0000,-36.50,-47.35,-33.37,-51.42,-55.53,-55.94
2021/01/28 03:42:26+0000,-36.52,-46.39,-32.96,-51.18,-55.17,-55.33
2021/01/28 03:43:18+0000,-37.68,-48.07,-33.29,-51.57,-54.98,-55.12
2021/01/28 03:44:10+0000,-37.19,-46.48,-33.21,-51.08,-55.64,-55.92
2021/01/28 03:45:02+0000,-36.84,-45.20,-33.79,-50.72,-55.90,-54.90
2021/01/28 03:45:54+0000,-35.81,-44.10,-33.14,-50.91,-55.75,-56.19
2021/01/28 03:46:46+0000,-37.19,-47.26,-32.79,-50.57,-55.83,-55.19
2021/01/28 03:47:38+0000,-35.90,-47.02,-33.07,-51.30,-55.68,-54.92
2021/01/28 03:48:30+0000,-36.81,-44.41,-33.39,-51.18,-55.30,-55.36
2021/01/28 03:49:22+0000,-36.47,-48.72,-33.79,-51.30,-55.27,-54.85
2021/01/28 03:50:14+0000,-36.50,-47.20,-33.46,-51.38,-56.09,-55.75
2021/01/28 03:51:14+0000,-36.52,-47.31,-33.06,-51.00,-55.76,-55.04
2021/01/28 03:52:06+0000,-36.49,-48.37,-33.67,-51.50,-55.68,-55.73
2021/01/28 03:52:58+0000,-37.19,-47.47,-33.68,-51.48,-55.54,-55.47
2021/01/28 03:53:50+0000,-35.75,-47.79,-33.06,-50.99,-55.54,-55.33
2021/01/28 03:54:43+0000,-36.14,-47.79,-33.37,-51.33,-56.04,-55.55
2021/01/28 03:55:35+0000,-35.97,-44.42,-32.90,-51.05,-56.21,-55.68
2021/01/28 03:56:27+0000,-35.93,-45.51,-33.30,-51.19,-55.39,-55.46
2021/01/28 03:57:19+0000,-36.38,-47.25,-33.37,-50.72,-55.86,-55.20
2021/01/28 03:58:11+0000,-35.73,-47.47,-33.42,-50.80,-55.85,-55.68
2021/01/28 03:59:03+0000,-35.24,-44.57,-33.46,-51.26,-55.56,-55.63
2021/01/28 03:59:55+0000,-35.30,-44.56,-33.17,-51.18,-55.42,-56.23
2021/01/28 04:00:47+0000,-35.62,-47.96,-33.36,-50.31,-55.45,-55.32
2021/01/28 04:01:48+0000,-35.68,-46.86,-33.27,-51.64,-55.72,-55.53
2021/01/28 04:02:40+0000,-35.38,-47.38,-33.39,-51.10,-56.09,-55.84
2021/01/28 04:03:32+0000,-35.57,-47.39,-33.07,-51.23,-54.89,-55.06
2021/01/28 04:04:24+0000,-36.01,-47.43,-33.58,-51.52,-55.00,-55.54
2021/01/28 04:05:16+0000,-35.34,-47.40,-33.15,-50.98,-55.34,-55.31
2021/01/28 04:06:08+0000,-36.30,-47.11,-33.29,-51.41,-55.31,-55.34
2021/01/28 04:07:00+0000,-35.37,-44.91,-33.74,-51.78,-55.25,-55.02
2021/01/28 04:07:52+0000,-35.93,-46.88,-33.72,-51.45,-54.88,-55.43
2021/01/28 04:08:44+0000,-35.55,-47.57,-33.52,-51.20,-55.00,-55.42
2021/01/28 04:09:36+0000,-34.41,-47.02,-33.70,-51.75,-54.98,-54.67
2021/01/28 04:10:29+0000,-35.65,-46.65,-33.78,-51.43,-55.29,-54.00
2021/01/28 04:11:29+0000,-35.54,-48.32,-33.52,-50.63,-55.34,-54.83
2021/01/28 04:12:21+0000,-36.01,-48.69,-33.84,-50.85,-55.56,-54.90
2021/01/28 04:13:13+0000,-35.76,-47.04,-33.86,-50.92,-54.89,-55.21
2021/01/28 04:14:05+0000,-35.54,-48.04,-33.91,-51.67,-55.01,-55.22
2021/01/28 04:14:57+0000,-35.50,-47.69,-33.89,-51.22,-54.72,-55.15
2021/01/28 04:15:49+0000,-35.42,-47.06,-34.01,-51.32,-54.55,-54.68
2021/01/28 04:16:41+0000,-35.09,-48.11,-34.35,-51.33,-54.70,-54.51
2021/01/28 04:17:33+0000,-35.23,-46.38,-34.34,-50.27,-54.85,-54.95
2021/01/28 04:18:25+0000,-35.36,-46.39,-33.70,-51.16,-54.93,-54.42
2021/01/28 04:19:17+0000,-35.16,-47.53,-34.10,-51.94,-55.68,-54.67
2021/01/28 04:20:10+0000,-35.66,-47.20,-33.97,-51.86,-55.89,-55.17
2021/01/28 04:21:25+0000,-34.63,-47.68,-34.09,-51.04,-54.90,-54.82
2021/01/28 04:22:17+0000,-35.91,-46.76,-34.23,-51.51,-55.60,-54.58
2021/01/28 04:23:09+0000,-34.95,-46.37,-33.85,-51.20,-55.51,-54.61
2021/01/28 04:24:01+0000,-36.32,-47.40,-34.22,-51.58,-54.93,-54.72
2021/01/28 04:24:53+0000,-35.34,-47.49,-33.93,-51.36,-54.91,-54.81
2021/01/28 04:25:45+0000,-36.42,-47.25,-34.45,-52.26,-55.44,-54.60
2021/01/28 04:26:37+0000,-35.71,-47.75,-33.57,-51.70,-55.05,-54.70
2021/01/28 04:27:29+0000,-35.25,-44.89,-33.97,-51.23,-54.80,-54.52
2021/01/28 04:28:21+0000,-34.20,-48.13,-33.38,-52.17,-55.10,-54.99
2021/01/28 04:29:13+0000,-35.65,-48.33,-33.82,-52.12,-55.12,-54.98
2021/01/28 04:30:06+0000,-35.63,-48.32,-34.32,-51.86,-54.47,-55.31
2021/01/28 04:31:02+0000,-36.37,-44.86,-33.97,-51.85,-55.46,-54.90
2021/01/28 04:31:54+0000,-35.61,-44.80,-33.76,-51.82,-55.66,-54.94
2021/01/28 04:32:47+0000,-35.69,-47.96,-33.64,-51.78,-55.20,-55.03
2021/01/28 04:33:39+0000,-35.30,-48.53,-33.57,-51.65,-55.64,-55.17
2021/01/28 04:34:31+0000,-36.72,-45.18,-33.71,-51.96,-55.21,-55.35
2021/01/28 04:35:23+0000,-35.90,-49.45,-33.06,-51.91,-55.79,-54.89
2021/01/28 04:36:15+0000,-35.92,-48.41,-33.70,-51.83,-55.02,-55.08
2021/01/28 04:37:07+0000,-36.71,-47.95,-33.35,-51.16,-55.58,-54.75
2021/01/28 04:37:59+0000,-36.68,-47.85,-33.25,-52.35,-54.68,-54.65
2021/01/28 04:38:51+0000,-35.65,-49.81,-33.32,-52.48,-55.55,-55.28
2021/01/28 04:39:43+0000,-35.49,-49.75,-33.58,-52.02,-55.42,-55.13
2021/01/28 04:40:35+0000,-35.58,-47.58,-33.71,-51.59,-55.76,-54.85
2021/01/28 04:41:33+0000,-36.79,-49.99,-33.10,-51.86,-55.16,-55.79
2021/01/28 04:42:25+0000,-34.26,-48.94,-33.56,-51.61,-55.58,-55.06
2021/01/28 04:43:17+0000,-36.49,-48.31,-32.92,-51.76,-55.33,-55.02
2021/01/28 04:44:09+0000,-36.44,-48.04,-33.55,-51.27,-54.96,-55.66
2021/01/28 04:45:01+0000,-36.37,-48.27,-33.31,-51.68,-54.99,-55.19